Location: Krasnoyarskiy Pitomnik
(51.1333°N, 71.6167°E)
Time: 12:52:21
(UTC+00:00)

Transit 2A - Pass Details

Date: 14 April 2024
Orbit: 594 x 958 km, 66.7° (Epoch: 27 May)

Event Time Altitude Azimuth Distance (km) Brightness Sun altitude
Rises 08:30:41 0° 316° (NW) 3,059 9.0 45.6°
Reaches altitude 10° 08:33:46 10° 338° (NNW) 2,211 8.2 45.4°
Maximum altitude 08:37:02 17° 18° (NNE) 1,856 7.8 45.1°
Drops below altitude 10° 08:40:29 10° 58° (ENE) 2,367 8.3 44.9°
Sets 08:43:56 0° 78° (ENE) 3,378 9.0 44.6°
